SCP
1 1 1 1 1 1 1 1 1 1 1 1 1 1 1 0 0 0 1 1 0 0 0 0 0 0 0 0 0 0 0 0 0 0 0 0 0 0 0 0 0 0 0
1 1 1 1 1 1 1 1 1 1 1 1 1 1 1 1 0 0 1 1 0 0 0 0 0 0 0 0 0 0 0 0 0 0 0 0 0 0 0 0 0 0 0
1 1 1 1 1 1 1 1 1 1 1 1 1 1 1 1 1 1 1 1 0 0 0 0 0 0 0 0 0 0 0 0 0 0 0 0 0 0 0 0 0 0 0
1 1 1 1 1 1 1 1 1 1 1 1 1 1 1 1 1 1 1 1 1 0 0 0 0 0 0 0 0 0 0 0 0 0 0 0 0 0 0 0 0 0 0
2 2 2 2 1 1 1 2 2 2 1 1 1 1 1 1 1 1 1 1 1 1 0 0 0 0 0 0 0 0 0 0 0 0 0 0 0 0 0 0 0 0 0
1 2 2 2 2 2 2 2 2 2 2 1 1 1 1 1 1 1 1 1 1 1 1 1 1 1 1 0 1 1 1 1 1 1 0 0 0 0 0 0 0 0 0
1 2 2 2 2 2 2 2 2 2 2 2 1 1 1 1 1 1 1 1 1 1 1 1 1 1 1 1 1 1 1 1 1 1 1 1 1 1 0 0 0 0 0
1 2 2 2 2 2 2 3 3 3 2 2 2 1 1 1 1 1 1 1 1 1 1 1 1 1 1 1 1 1 1 1 1 1 1 1 1 1 1 0 0 0 0
1 1 2 2 3 3 3 3 3 3 2 2 2 2 1 1 1 1 1 1 1 1 1 1 1 1 1 1 1 1 1 1 1 1 1 1 1 1 1 1 1 0 0
1 1 2 2 2 2 2 3 3 3 2 2 2 2 1 1 1 1 1 1 1 1 1 1 1 1 1 1 1 1 1 1 1 1 1 1 1 1 1 1 1 1 1
1 1 1 2 2 2 2 3 3 3 2 2 2 2 1 1 1 1 1 1 1 1 1 1 1 1 1 1 1 1 1 1 1 1 1 1 1 1 1 1 1 1 1
1 1 1 2 2 2 2 2 3 3 2 2 2 2 1 1 1 1 1 1 1 1 1 1 1 1 1 1 1 1 1 1 1 1 1 1 1 1 1 1 1 1 1
1 1 2 2 2 3 3 3 3 2 2 2 2 2 1 1 1 1 1 1 2 2 1 1 1 1 1 1 1 1 1 1 1 1 1 1 1 1 1 1 1 1 1
2 2 2 3 3 3 3 3 3 2 2 2 2 2 2 2 2 2 2 2 2 2 2 1 1 1 1 1 1 1 1 1 1 1 1 1 1 1 1 1 1 1 1
2 2 2 3 3 3 3 3 3 2 2 2 2 2 2 2 2 2 2 2 2 2 2 1 1 1 1 1 1 1 1 1 1 1 1 1 1 1 1 1 1 1 1
2 2 2 3 3 3 3 3 3 3 2 2 2 2 2 2 2 2 2 2 2 2 2 2 1 1 1 1 0 1 1 1 1 1 1 1 1 1 1 0 0 0 0
2 2 2 2 3 3 3 3 3 3 3 2 2 2 2 2 2 2 2 2 2 2 2 2 1 1 1 0 0 0 1 1 1 1 1 1 1 1 0 0 0 0 0
2 2 2 2 2 2 3 3 3 3 2 2 2 2 2 2 2 2 2 2 2 2 2 2 1 1 1 0 0 0 0 1 1 1 1 1 1 0 0 0 0 0 0
2 2 2 2 2 2 2 2 2 2 2 2 2 2 2 2 2 2 2 2 2 2 2 1 1 1 1 0 0 0 0 1 1 1 1 1 0 0 0 0 0 0 0
1 2 1 2 2 2 2 2 2 2 2 2 2 2 2 2 2 2 2 2 2 1 1 1 1 1 1 0 0 0 0 1 1 1 1 0 0 0 0 0 0 0 0
1 1 1 1 1 2 2 2 2 2 1 1 2 2 2 2 2 2 2 2 1 1 1 1 1 1 1 1 0 0 0 0 1 1 0 0 0 0 0 0 0 0 0
1 1 1 1 1 1 1 1 1 1 1 1 1 1 2 2 1 1 1 1 1 1 1 1 1 1 1 1 0 0 0 0 0 0 0 0 0 0 0 0 0 0 0
1 1 1 1 1 1 1 1 1 1 1 1 1 1 1 1 1 1 1 1 1 1 1 1 1 1 1 1 0 0 0 0 0 0 0 0 0 0 0 0 0 0 0
1 1 1 1 1 1 1 1 1 1 1 1 1 1 1 1 1 1 1 1 1 1 1 1 1 1 1 1 1 0 0 0 0 0 0 0 0 0 0 0 0 0 0
1 1 1 1 1 0 1 1 1 1 1 1 1 1 1 1 1 1 1 1 1 1 1 1 1 1 1 1 0 0 0 0 0 0 0 0 0 0 0 0 0 0 0
1 1 0 0 0 0 0 0 0 0 0 0 1 1 1 1 1 1 0 0 0 0 0 0 0 0 0 0 0 0 0 0 0 0 0 0 0 0 0 0 0 0 0
Wind_Speed
14 15 14 15 14 12 11 9 8 8 6 5 5 4 4 3 3 3 6 6 4 4 2 2 3 2 2 1 1 1 1 1 1 1 1 2 3 3 3 3 3 5 5
15 15 15 14 14 13 12 10 9 9 7 5 4 4 4 3 3 3 5 6 5 4 4 4 3 3 2 2 1 1 0 1 1 1 0 1 1 2 4 4 4 5 4
17 16 16 15 15 15 14 12 10 10 8 7 5 4 3 2 3 4 4 5 5 4 3 4 3 3 3 3 3 2 2 1 1 1 1 0 1 1 2 4 3 3 3
17 17 16 16 16 15 14 12 11 10 9 7 7 7 5 4 4 4 4 5 5 5 4 4 4 2 2 3 4 3 2 2 2 1 2 2 1 1 1 2 3 4 4
18 18 18 16 16 16 15 13 11 10 10 8 7 7 5 4 3 4 5 5 5 5 5 5 4 4 3 3 3 2 3 2 2 2 2 2 2 3 2 2 2 2 3
18 18 18 16 15 15 15 14 12 11 11 10 9 7 6 6 5 5 5 5 4 4 6 6 5 5 4 4 4 3 4 4 3 2 2 2 2 2 2 3 3 3 3
16 17 18 18 16 15 15 15 14 13 12 11 10 9 7 6 5 4 4 5 4 4 6 6 5 5 5 5 5 4 4 5 4 4 3 3 3 2 2 3 2 3 2
14 16 17 17 16 16 15 15 15 13 13 12 10 9 8 6 6 6 5 5 4 4 5 6 5 6 6 6 5 4 5 5 5 6 4 3 4 3 3 3 2 3 3
11 12 14 15 15 15 14 14 15 14 13 13 11 9 9 8 7 6 7 5 4 4 5 6 6 6 6 6 5 4 5 4 5 5 5 5 4 3 3 3 2 3 3
10 11 12 13 13 13 13 13 14 13 13 12 11 10 10 8 6 5 6 5 5 4 3 4 5 6 6 6 5 5 5 5 5 4 5 4 4 4 3 3 3 3 3
9 9 8 9 11 13 13 13 13 13 12 11 10 9 9 9 7 6 6 5 5 4 4 4 4 5 5 5 5 5 6 6 6 6 6 6 5 4 3 3 3 4 3
6 7 8 8 9 11 12 12 12 12 11 10 9 9 8 8 8 8 6 5 4 5 5 4 4 5 5 4 5 6 6 6 6 6 5 5 5 5 4 4 4 4 4
5 7 6 6 6 8 9 10 10 11 11 10 9 9 9 8 7 7 6 5 5 5 5 4 4 4 4 4 5 5 6 6 6 5 5 5 4 5 4 5 4 4 5
5 6 6 6 5 5 6 6 8 9 9 9 9 8 8 7 7 6 5 5 5 5 4 4 4 4 3 3 4 5 5 5 5 4 5 4 4 5 5 5 5 4 4
6 6 6 5 5 5 5 5 5 6 7 7 7 6 6 5 5 5 5 4 4 5 4 3 3 3 3 3 4 4 4 3 3 4 3 3 4 4 4 4 3 4 3
6 5 5 6 5 5 5 5 4 5 5 6 5 4 5 5 4 4 4 4 4 3 3 3 3 3 3 2 2 2 3 2 3 3 3 3 3 3 4 5 5 4 4
6 5 5 5 5 5 5 4 4 4 5 4 4 4 4 4 4 4 3 3 3 3 3 3 2 2 0 1 1 1 2 2 3 3 3 4 4 3 3 3 4 4 5
6 6 5 6 6 5 5 5 5 4 4 4 3 3 3 3 2 2 2 2 2 2 2 2 2 1 1 1 1 1 2 2 2 2 3 3 3 4 4 3 2 2 2
6 6 6 7 7 6 6 5 5 4 4 3 3 3 2 2 3 3 2 1 2 2 2 2 2 1 1 1 0 0 1 1 1 2 3 3 3 5 5 3 3 2 2
7 7 8 8 7 6 5 5 5 5 4 3 3 3 2 2 3 3 2 2 2 2 2 2 2 2 2 2 2 0 1 1 1 1 2 4 4 4 4 3 2 3 3
8 8 9 8 7 6 5 5 6 5 4 3 3 3 3 2 2 2 2 2 2 2 2 2 2 2 3 3 3 2 1 1 1 2 2 3 4 3 4 3 3 3 3
8 8 8 8 7 6 5 6 6 5 5 5 4 4 3 2 3 3 2 2 2 2 2 2 2 2 3 3 3 2 1 2 2 2 2 2 3 3 3 3 3 3 3
7 7 9 9 7 6 5 7 6 5 5 5 5 4 5 5 4 4 3 2 2 1 1 1 1 1 2 3 4 2 1 2 2 2 3 3 2 1 2 3 4 3 2
7 7 8 8 7 6 6 6 5 5 5 5 5 4 5 6 6 5 4 4 3 2 2 2 2 2 3 3 3 1 1 1 1 1 2 3 3 3 3 3 2 2 3
6 7 7 7 7 6 6 6 5 4 5 5 4 5 5 6 6 6 6 6 6 5 4 3 3 3 3 3 3 3 2 2 2 2 2 2 2 3 3 3 3 3 3
6 7 7 7 6 6 6 5 4 4 4 3 3 4 4 4 5 6 7 11 9 11 12 10 6 5 4 4 5 5 5 5 4 3 3 4 4 4 4 3 4 4 4
Wind_Direction
176 169 168 166 162 158 159 164 167 158 162 165 173 178 171 175 172 165 148 153 169 169 173 137 148 175 145 154 145 131 183 230 190 198 217 235 207 193 196 203 195 202 195
175 171 171 170 167 164 165 169 171 166 175 173 177 181 175 179 175 165 149 162 172 177 182 166 177 170 154 167 168 143 271 277 186 188 293 256 248 233 210 195 202 205 196
177 174 174 175 173 172 174 176 176 172 182 175 177 184 167 190 171 156 160 174 174 185 206 167 195 176 176 171 196 210 214 255 263 206 193 229 254 263 242 215 203 200 198
179 177 178 179 180 177 177 176 175 175 179 181 185 187 183 189 188 174 170 179 185 190 193 188 191 201 204 173 199 198 218 229 256 246 220 209 210 223 265 251 212 207 213
181 181 182 182 183 180 179 179 175 179 179 189 192 193 196 191 187 180 169 180 187 196 201 196 193 197 215 211 208 188 214 235 241 248 240 220 215 218 220 251 239 230 222
184 181 180 178 183 183 180 178 176 181 182 191 194 198 202 199 196 189 173 184 192 199 207 205 197 201 211 214 212 218 218 233 248 260 270 251 236 232 228 242 242 233 231
185 179 177 178 183 184 181 178 176 182 186 192 197 198 205 204 204 201 194 200 204 199 204 211 199 207 209 212 212 212 231 230 234 236 247 259 260 253 253 250 254 258 254
183 181 179 178 182 185 182 178 177 183 187 193 197 197 198 205 209 207 212 206 218 215 191 194 204 211 213 221 209 219 225 226 230 241 237 249 259 256 253 253 255 274 273
179 174 175 178 181 183 182 182 177 182 188 194 195 197 198 206 210 201 208 218 220 216 196 190 199 210 216 227 216 226 232 225 227 238 234 238 247 249 252 248 235 240 263
168 173 177 173 178 182 181 181 178 182 188 194 196 197 201 204 209 208 207 215 222 228 208 206 203 209 216 220 223 233 233 232 232 233 238 244 249 252 248 247 242 235 244
180 169 166 170 178 180 180 181 179 181 187 192 196 200 197 200 204 211 215 214 213 216 221 223 224 222 222 223 224 238 240 238 238 237 233 237 246 254 257 254 248 240 232
157 150 156 170 176 176 178 178 178 181 185 189 192 200 197 198 201 205 209 211 209 212 216 214 225 232 231 226 227 242 245 242 240 239 241 243 242 236 253 262 262 254 238
118 127 134 146 160 163 167 171 175 179 184 185 190 193 193 195 199 204 203 203 208 213 218 213 222 234 240 240 241 244 250 251 250 244 241 242 243 245 246 253 258 259 254
93 108 114 118 122 125 137 154 166 172 175 178 187 191 194 194 197 198 199 202 205 211 214 212 217 224 236 253 258 251 250 253 260 260 254 246 243 247 248 251 252 262 264
105 98 105 113 116 118 127 140 152 158 166 169 181 186 186 187 192 192 196 198 201 209 207 212 221 225 229 252 256 252 249 253 260 262 262 264 273 272 260 262 269 268 265
112 106 111 117 122 125 130 130 142 151 154 164 175 173 178 181 186 188 187 186 191 202 204 206 211 226 245 264 252 257 269 271 271 276 278 276 281 282 261 260 265 266 264
101 105 111 111 111 114 117 125 124 133 138 148 157 162 170 176 180 190 182 191 196 201 209 205 208 217 31 9 347 309 308 289 295 298 299 288 296 312 297 268 255 261 266
100 97 96 98 101 101 100 99 101 107 125 128 129 138 158 164 160 175 181 180 180 191 195 185 177 157 70 40 341 303 284 294 312 325 321 316 334 331 322 299 292 275 284
97 98 94 93 87 89 92 99 103 104 115 124 132 139 145 151 157 168 171 166 165 179 173 154 142 126 68 41 22 190 257 292 332 351 -0 353 343 343 339 330 323 328 333
97 93 87 85 83 79 82 88 91 91 95 107 125 131 135 144 156 158 164 167 173 171 160 132 118 108 71 58 45 15 257 285 323 6 32 26 2 352 1 358 350 342 338
91 89 87 81 74 76 81 84 83 82 82 89 87 93 102 115 120 129 142 151 153 145 145 125 105 88 68 74 64 70 14 341 354 12 25 28 18 18 25 26 12 349 337
95 96 91 83 70 62 72 78 70 70 75 82 84 83 83 93 103 98 103 112 128 133 128 113 95 77 70 69 69 81 46 2 13 16 29 40 33 39 34 28 13 358 347
87 91 94 88 77 67 70 77 67 64 70 74 77 81 77 65 62 74 71 73 77 88 95 101 102 86 75 68 66 87 59 22 25 34 44 40 35 48 48 25 12 8 355
87 89 90 87 79 71 66 67 66 68 73 77 73 78 83 74 58 52 52 53 39 38 53 56 56 54 56 35 21 44 58 61 37 33 48 48 42 38 38 34 25 21 18
83 87 89 88 84 77 70 64 62 65 70 75 78 84 85 87 76 63 49 53 50 39 41 38 40 41 51 15 14 24 26 25 45 46 47 40 44 46 40 31 32 28 27
93 94 92 89 85 81 73 67 66 69 74 78 75 83 90 94 99 97 81 59 66 59 55 49 54 60 51 44 50 49 44 42 49 60 57 50 40 37 34 29 29 32 22